Cooperstown, ND

4:24 AM CST on January 19, 2018 (GMT -0600)
Cooperstown

Weather History for KS32 - October, 2012

Change the Weather History Date:

Wednesday, October 31, 2012

  Actual Average (KJMS) Record (KJMS)
Temperature  
Mean Temperature 41 °F -  
Max Temperature 50 °F 49 °F 80 °F (1904)
Min Temperature 32 °F 28 °F -1 °F (1991)
Degree Days  
Heating Degree Days 24    
Moisture  
Dew Point 37 °F    
Average Humidity 89    
Maximum Humidity 100    
Minimum Humidity 76    
Precipitation  
Precipitation 0.00 in - - ()
Sea Level Pressure  
Sea Level Pressure 29.99 in    
Wind  
Wind Speed 10 mph (SW)    
Max Wind Speed 21 mph    
Max Gust Speed 26 mph    
Visibility 10 miles    
Events      
Averages and records for this station are not official NWS values.
T = Trace of Precipitation, MM = Missing Value Source: NWS Daily Summary

Daily Weather History Graph

Daily Weather History Graph

Search for Another Location

Airport or City:

Trip Planner

Search our weather history database for the weather conditions in past years. The results will help you decide how hot, cold, wet, or windy it might be!

Date:

Astronomy

Oct. 31, 2012 Rise Set
Actual Time 8:15 AM CDT 6:15 PM CDT
Civil Twilight 7:43 AM CDT 6:48 PM CDT
Nautical Twilight 7:07 AM CDT 7:24 PM CDT
Astronomical Twilight 6:31 AM CDT 7:59 PM CDT
Moon 7:20 PM CDT (10/31) 10:05 AM CDT (10/31)
Length of Visible Light 11h 04m
Length of Day
10h 00m
Full, 97% of the Moon is Illuminated
Oct 31
Full
Nov 6
Last Quarter
Nov 13
New
Nov 20
First Quarter
Nov 28
Full

Hourly Weather History & Observations

Time (CDT) Temp. Windchill Dew Point Humidity Pressure Visibility Wind Dir Wind Speed Gust Speed Precip Events Conditions
12:15 AM 35.6 °F 28.0 °F 32.0 °F 87% 30.01 in 10.0 mi SSE 10.4 mph - N/A   Partly Cloudy
12:35 AM 35.6 °F 28.6 °F 32.0 °F 87% 30.01 in 10.0 mi SSE 9.2 mph - N/A   Clear
12:55 AM 35.6 °F 29.2 °F 32.0 °F 87% 30.01 in 10.0 mi SSE 8.1 mph - N/A   Clear
1:15 AM 32.0 °F 25.6 °F 32.0 °F 100% 30.02 in 10.0 mi SSE 6.9 mph - N/A   Partly Cloudy
1:35 AM 35.6 °F 29.2 °F 32.0 °F 87% 30.03 in 10.0 mi SSE 8.1 mph - N/A   Mostly Cloudy
1:55 AM 35.6 °F 28.0 °F 32.0 °F 87% 30.01 in 10.0 mi SSE 10.4 mph - N/A   Mostly Cloudy
2:15 AM 35.6 °F 28.0 °F 32.0 °F 87% 30.01 in 10.0 mi SSE 10.4 mph - N/A   Mostly Cloudy
2:35 AM 37.4 °F 30.3 °F 32.0 °F 81% 30.01 in 10.0 mi SSE 10.4 mph - N/A   Mostly Cloudy
2:55 AM 37.4 °F 30.3 °F 32.0 °F 81% 30.01 in 10.0 mi SSE 10.4 mph - N/A   Overcast
3:15 AM 37.4 °F 30.3 °F 32.0 °F 81% 30.00 in 10.0 mi South 10.4 mph - N/A   Mostly Cloudy
3:35 AM 37.4 °F 29.3 °F 32.0 °F 81% 30.00 in 10.0 mi South 12.7 mph - N/A   Mostly Cloudy
3:55 AM 35.6 °F 27.5 °F 32.0 °F 87% 30.00 in 10.0 mi SSE 11.5 mph - N/A   Mostly Cloudy
4:15 AM 35.6 °F 28.0 °F 32.0 °F 87% 29.99 in 10.0 mi SSE 10.4 mph - N/A   Partly Cloudy
4:35 AM 35.6 °F 27.1 °F 32.0 °F 87% 29.98 in 10.0 mi SSE 12.7 mph - N/A   Clear
4:55 AM 35.6 °F 28.6 °F 32.0 °F 87% 29.98 in 10.0 mi South 9.2 mph - N/A   Clear
5:15 AM 35.6 °F 28.0 °F 32.0 °F 87% 29.98 in 10.0 mi South 10.4 mph - N/A   Clear
5:35 AM 35.6 °F 28.0 °F 32.0 °F 87% 29.97 in 10.0 mi South 10.4 mph - N/A   Clear
5:55 AM 35.6 °F 28.6 °F 32.0 °F 87% 29.98 in 10.0 mi South 9.2 mph - N/A   Clear
6:15 AM 35.6 °F 28.6 °F 32.0 °F 87% 29.98 in 10.0 mi South 9.2 mph - N/A   Clear
6:35 AM 33.8 °F 25.8 °F 32.0 °F 93% 29.97 in 10.0 mi South 10.4 mph - N/A   Clear
6:55 AM 33.8 °F 25.8 °F 32.0 °F 93% 29.97 in 10.0 mi South 10.4 mph - N/A   Clear
7:15 AM 32.0 °F 24.2 °F 32.0 °F 100% 29.96 in 10.0 mi South 9.2 mph - N/A   Clear
7:35 AM 32.0 °F 23.6 °F 32.0 °F 100% 29.96 in 10.0 mi South 10.4 mph - N/A   Clear
7:55 AM 32.0 °F 24.2 °F 32.0 °F 100% 29.96 in 10.0 mi South 9.2 mph - N/A   Clear
8:15 AM 32.0 °F 25.6 °F 32.0 °F 100% 29.96 in 10.0 mi South 6.9 mph - N/A   Clear
8:35 AM 32.0 °F 25.6 °F 32.0 °F 100% 29.96 in 10.0 mi South 6.9 mph - N/A   Clear
8:55 AM 32.0 °F 25.6 °F 32.0 °F 100% 29.96 in 10.0 mi South 6.9 mph - N/A   Clear
9:15 AM 32.0 °F 25.6 °F 32.0 °F 100% 29.96 in 10.0 mi South 6.9 mph - N/A   Clear
9:35 AM 32.0 °F 26.4 °F 32.0 °F 100% 29.96 in 10.0 mi South 5.8 mph - N/A   Clear
9:55 AM 35.6 °F 28.6 °F 32.0 °F 87% 29.97 in 10.0 mi SW 9.2 mph - N/A   Clear
10:15 AM 37.4 °F 32.8 °F 33.8 °F 87% 29.97 in 10.0 mi WSW 5.8 mph - N/A   Clear
10:35 AM 39.2 °F 35.9 °F 35.6 °F 87% 29.97 in 10.0 mi SW 4.6 mph - N/A   Clear
10:55 AM 39.2 °F 37.0 °F 35.6 °F 87% 29.96 in 10.0 mi WSW 3.5 mph - N/A   Partly Cloudy
11:15 AM 41.0 °F 39.0 °F 37.4 °F 87% 29.96 in 10.0 mi WSW 3.5 mph - N/A   Mostly Cloudy
11:35 AM 44.6 °F 42.2 °F 39.2 °F 81% 29.95 in 10.0 mi West 4.6 mph - N/A   Mostly Cloudy
11:55 AM 44.6 °F 43.1 °F 39.2 °F 81% 29.95 in 10.0 mi SW 3.5 mph - N/A   Scattered Clouds
12:15 PM 46.4 °F 43.5 °F 39.2 °F 76% 29.96 in 10.0 mi West 5.8 mph - N/A   Mostly Cloudy
12:35 PM 46.4 °F 45.2 °F 41.0 °F 81% 29.95 in 10.0 mi WNW 3.5 mph - N/A   Mostly Cloudy
12:55 PM 46.4 °F 43.5 °F 41.0 °F 81% 29.95 in 10.0 mi West 5.8 mph - N/A   Mostly Cloudy
1:15 PM 46.4 °F 44.3 °F 41.0 °F 81% 29.94 in 10.0 mi WSW 4.6 mph - N/A   Mostly Cloudy
1:35 PM 46.4 °F - 41.0 °F 81% 29.94 in 10.0 mi Calm Calm - N/A   Mostly Cloudy
1:55 PM 48.2 °F - 41.0 °F 76% 29.94 in 10.0 mi North 4.6 mph - N/A   Partly Cloudy
2:15 PM 48.2 °F - 41.0 °F 76% 29.94 in 10.0 mi Calm Calm - N/A   Mostly Cloudy
2:35 PM 50.0 °F - 42.8 °F 76% 29.94 in 9.0 mi North 3.5 mph - N/A   Scattered Clouds
2:55 PM 48.2 °F - 42.8 °F 82% 29.94 in 8.0 mi North 8.1 mph - N/A   Mostly Cloudy
3:15 PM 50.0 °F - 42.8 °F 76% 29.94 in 10.0 mi North 8.1 mph - N/A   Mostly Cloudy
3:35 PM 50.0 °F - 44.6 °F 82% 29.94 in 10.0 mi NNW 12.7 mph - N/A   Scattered Clouds
3:55 PM 50.0 °F - 44.6 °F 82% 29.94 in 10.0 mi NNW 13.8 mph - N/A   Mostly Cloudy
4:15 PM 50.0 °F - 46.4 °F 87% 29.94 in 10.0 mi North 18.4 mph - N/A   Mostly Cloudy
4:35 PM 48.2 °F - 44.6 °F 87% 29.95 in 10.0 mi North 12.7 mph 18.4 mph N/A   Mostly Cloudy
4:55 PM 46.4 °F 41.1 °F 44.6 °F 93% 29.96 in 10.0 mi NNW 11.5 mph - N/A   Scattered Clouds
5:15 PM 46.4 °F 40.1 °F 44.6 °F 93% 29.96 in 9.0 mi North 15.0 mph 20.7 mph N/A   Mostly Cloudy
5:35 PM 46.4 °F 40.4 °F 44.6 °F 93% 29.97 in 8.0 mi North 13.8 mph - N/A   Mostly Cloudy
5:55 PM 46.4 °F 38.7 °F 44.6 °F 93% 29.98 in 7.0 mi North 20.7 mph 25.3 mph N/A   Overcast
6:15 PM 44.6 °F 37.2 °F 44.6 °F 100% 29.99 in 5.0 mi North 17.3 mph - N/A   Overcast
6:35 PM 44.6 °F 37.8 °F 44.6 °F 100% 30.00 in 7.0 mi North 15.0 mph - N/A   Overcast
7:15 PM 41.0 °F 32.5 °F 41.0 °F 100% 30.03 in 8.0 mi North 17.3 mph 26.5 mph N/A   Overcast
7:35 PM 41.0 °F 32.5 °F 41.0 °F 100% 30.03 in 5.0 mi North 17.3 mph 23.0 mph N/A   Overcast
7:55 PM 39.2 °F 29.3 °F 39.2 °F 100% 30.03 in 7.0 mi North 20.7 mph - N/A   Overcast
8:15 PM 39.2 °F 30.8 °F 39.2 °F 100% 30.04 in 10.0 mi North 15.0 mph 23.0 mph N/A   Overcast
8:35 PM 39.2 °F 30.8 °F 39.2 °F 100% 30.05 in 9.0 mi North 15.0 mph - N/A   Overcast
9:15 PM 37.4 °F 29.3 °F 37.4 °F 100% 30.06 in 9.0 mi North 12.7 mph - N/A   Overcast
9:35 PM 39.2 °F 30.8 °F 39.2 °F 100% 30.06 in 10.0 mi North 15.0 mph - N/A   Overcast
10:15 PM 37.4 °F 28.2 °F 37.4 °F 100% 30.06 in 10.0 mi North 16.1 mph - N/A   Overcast
10:35 PM 37.4 °F 27.8 °F 35.6 °F 93% 30.07 in 10.0 mi North 17.3 mph - N/A   Overcast
10:55 PM 37.4 °F 28.9 °F 35.6 °F 93% 30.07 in 10.0 mi North 13.8 mph - N/A   Overcast
11:15 PM 37.4 °F 27.5 °F 33.8 °F 87% 30.07 in 10.0 mi North 18.4 mph 21.9 mph N/A   Overcast
11:35 PM 35.6 °F 25.9 °F 32.0 °F 87% 30.08 in 10.0 mi North 16.1 mph - N/A   Overcast
11:55 PM 35.6 °F 25.9 °F 32.0 °F 87% 30.08 in 10.0 mi North 16.1 mph - N/A   Overcast